Cloud_Cover
100 100 100 100 100 100 100 100 100 100 100 100 100 93 83 39 55 41 0 0 0 0 0 15 1 2 4 4 5 1 0 0 0 0 0 0 0 0 0 0 0 0 0 0 0 0 0 0 0 0 0 0 0 0
100 100 100 100 100 100 100 100 100 100 100 100 100 100 100 38 96 54 5 0 0 0 0 1 74 65 5 5 5 5 0 0 0 0 0 0 0 0 0 0 0 0 0 0 0 0 0 0 0 0 0 0 0 0
100 100 100 100 100 100 100 100 100 100 100 100 50 100 98 57 98 100 37 11 0 1 1 0 0 98 92 12 5 2 0 1 0 0 0 0 0 0 0 0 0 0 0 0 0 0 0 0 0 0 0 0 0 0
100 100 100 100 100 100 100 100 100 100 100 100 100 79 75 64 100 98 84 31 23 5 4 0 0 0 90 98 31 5 2 0 0 0 0 0 0 0 0 0 0 0 0 0 0 0 0 0 0 0 0 0 0 0
100 100 100 100 100 100 100 100 100 100 100 100 100 100 100 94 100 100 81 100 100 76 42 3 0 0 0 43 100 6 0 0 0 0 0 0 0 0 0 0 0 0 0 0 0 0 0 0 0 0 0 0 0 0
100 100 100 100 100 100 100 100 100 100 100 100 100 73 100 100 100 100 100 100 100 100 100 73 0 0 0 0 0 0 0 0 0 0 0 0 0 0 0 0 0 0 0 0 0 0 0 0 0 0 0 0 0 0
100 100 100 100 100 100 100 100 100 100 100 93 66 100 100 100 100 100 100 100 100 100 100 100 8 0 0 0 0 0 0 0 0 0 0 0 0 0 0 0 0 0 0 0 0 0 0 0 0 0 0 0 0 0
100 100 100 100 100 100 100 100 100 100 94 0 11 100 100 100 100 100 100 100 100 100 100 100 100 7 0 0 0 0 0 0 0 0 0 0 0 0 0 0 0 0 0 0 0 0 0 0 0 0 0 0 0 0
100 100 100 100 100 100 100 100 100 100 96 0 3 99 100 100 100 100 100 100 100 100 100 100 100 100 74 51 4 0 0 0 0 0 0 0 0 0 0 0 0 0 0 0 0 0 0 0 0 0 0 0 0 0
100 100 100 100 95 100 100 100 100 100 100 39 85 21 94 99 99 65 98 94 77 100 93 88 94 98 99 81 17 3 5 3 0 0 0 0 0 0 0 0 0 0 0 0 0 0 0 0 0 0 0 0 0 0
100 100 100 100 100 100 100 100 100 100 100 99 46 5 31 9 5 5 14 65 99 95 99 87 54 30 5 1 2 5 5 13 4 3 2 0 0 0 0 0 0 0 0 2 3 0 0 0 0 0 0 0 0 0
58 98 100 100 100 100 100 100 100 100 100 100 100 100 79 30 62 98 100 100 100 100 100 100 94 93 80 5 5 5 5 42 6 2 2 0 0 0 0 0 0 2 5 1 0 0 0 0 0 0 0 0 0 0
96 100 100 100 100 100 100 100 100 100 100 100 100 100 94 60 81 95 100 100 100 100 100 91 76 85 45 13 14 5 44 48 9 5 5 0 0 0 0 4 4 5 0 0 0 5 2 0 0 0 0 0 0 0
100 100 100 100 100 100 100 100 100 100 100 100 100 99 99 91 74 100 100 100 100 100 100 69 76 79 69 72 30 100 100 60 20 7 4 4 4 1 4 5 5 0 0 4 1 0 0 0 0 0 0 0 0 0
99 100 100 100 100 100 100 100 100 100 100 100 100 100 95 94 84 97 79 100 100 100 94 52 96 99 100 31 43 75 90 83 67 19 5 5 5 5 5 5 5 5 5 1 0 0 0 0 0 0 0 58 96 98
84 100 100 100 100 100 100 100 100 99 97 98 95 100 100 98 96 100 100 97 79 94 89 60 92 99 100 96 100 99 100 92 51 49 5 5 5 5 5 34 12 5 4 0 0 0 0 0 2 48 100 100 100 100
72 100 100 100 100 100 100 100 99 99 100 100 70 95 99 100 100 99 100 100 94 96 99 96 100 92 25 87 100 100 100 100 85 65 24 6 5 6 94 48 5 3 0 0 0 0 0 0 25 90 72 100 100 92
22 78 100 100 100 100 98 92 86 100 92 38 84 83 100 100 100 100 100 100 100 100 99 99 99 46 83 100 100 100 100 75 95 100 70 60 45 43 20 5 5 2 5 5 0 0 2 21 98 100 100 100 99 100
10 66 85 100 100 100 99 87 52 88 61 5 32 89 98 91 33 43 98 95 93 79 93 100 100 100 100 100 100 100 100 100 100 100 100 100 75 5 7 5 4 3 0 0 0 0 4 52 100 100 100 100 66 30
0 98 100 96 97 84 96 44 52 95 87 10 19 50 25 15 10 5 20 97 53 50 82 100 100 100 93 100 97 95 87 100 100 100 96 29 5 5 5 5 4 2 5 0 0 64 52 82 100 100 100 100 97 21
26 58 86 99 90 55 86 99 53 61 60 100 46 42 6 43 82 71 28 14 86 100 100 90 100 60 100 98 100 100 98 84 100 100 92 95 33 5 5 5 5 0 8 34 52 56 58 99 89 100 100 100 100 98
0 66 81 98 100 100 54 60 49 55 46 37 71 100 54 80 80 83 98 100 97 69 28 32 48 100 100 61 66 85 96 100 100 72 82 35 6 8 5 5 4 18 29 25 44 70 100 97 99 100 100 100 100 100
0 38 67 72 93 78 69 42 98 49 60 41 76 100 100 94 83 79 99 100 74 58 77 45 50 70 79 88 100 97 98 97 62 100 88 90 63 7 5 4 0 11 29 6 20 56 58 76 100 100 100 98 100 100
67 96 65 93 85 63 26 69 87 55 70 98 100 100 100 100 100 91 100 100 100 93 95 100 98 55 100 98 100 98 90 98 100 100 100 77 6 4 0 0 0 0 13 85 100 36 27 98 84 100 100 100 100 100
99 77 77 100 98 100 80 12 29 40 55 76 92 100 98 100 100 91 100 100 100 100 100 100 79 97 100 100 100 100 100 100 100 87 25 5 2 0 0 0 0 0 12 31 99 100 98 100 94 100 100 100 100 100
98 41 86 90 100 55 90 58 100 100 100 98 100 100 90 82 100 100 100 98 96 100 100 98 72 82 100 100 100 100 100 80 52 24 3 0 0 0 0 0 18 82 29 38 88 97 100 100 100 100 100 100 100 100
100 83 100 63 97 100 100 100 100 100 100 100 100 100 95 100 100 100 100 100 100 100 100 100 100 100 100 100 100 100 80 8 6 5 0 0 0 0 2 68 100 84 59 91 76 100 100 100 96 100 100 100 100 100
100 100 93 100 100 100 100 100 100 100 100 100 100 100 100 100 100 100 100 100 100 100 100 100 100 100 100 100 94 46 7 6 0 1 0 0 0 0 0 99 52 79 90 100 100 100 100 100 98 100 100 100 100 100
78 100 100 100 100 100 100 100 100 100 100 100 100 100 100 100 100 100 100 100 100 100 100 100 100 100 88 42 32 11 5 17 35 5 4 3 0 0 0 40 91 12 34 98 100 100 100 100 100 100 100 100 100 100
92 100 100 100 100 100 100 100 100 100 100 100 100 100 100 100 100 100 100 100 100 100 100 86 72 63 17 5 5 5 5 5 5 5 3 0 0 0 0 4 96 34 72 66 100 99 100 100 100 100 98 100 100 100
100 100 100 96 100 96 94 100 100 100 100 100 97 100 100 100 100 100 100 100 98 100 96 56 63 64 88 95 6 5 5 7 5 3 0 0 0 0 0 0 27 42 51 100 32 10 88 100 100 100 100 100 100 100
100 100 100 100 100 87 91 95 95 100 100 100 100 98 100 100 100 100 100 100 100 67 30 5 5 5 36 31 5 5 5 7 5 5 4 0 0 0 0 0 4 20 34 52 49 28 7 5 16 50 84 89 72 57
100 100 100 100 100 100 100 100 100 100 100 100 83 98 100 100 100 100 100 100 100 82 100 96 41 75 100 51 6 5 5 10 42 6 5 5 5 2 0 0 0 0 2 5 7 9 6 5 5 5 1 1 2 3